Weather History for Saginaw, MI

Change the Weather History Date:

Tuesday, January 24, 2012

  Actual Average Record
Temperature  
Mean Temperature 31 °F 22 °F  
Max Temperature 32 °F 29 °F 36 °F (2006)
Min Temperature 30 °F 15 °F -2 °F (2011)
Degree Days  
Heating Degree Days 34    
Month to date heating degree days  
Since 1 July heating degree days  
Cooling Degree Days 0    
Month to date cooling degree days  
Year to date cooling degree days  
Moisture  
Dew Point 22 °F    
Average Humidity 69    
Maximum Humidity 76    
Minimum Humidity 61    
Precipitation  
Precipitation 0.00 in 0.04 in 0.09 in (1997)
Month to date precipitation 1.38  
Year to date precipitation 1.38  
Snow  
Snow 0.00 in - - ()
Month to date snowfall  
Since 1 July snowfall  
Snow Depth -    
Sea Level Pressure  
Sea Level Pressure 30.05 in    
Wind  
Wind Speed 17 mph (West)    
Max Wind Speed 24 mph    
Max Gust Speed 31 mph    
Visibility 10 miles    
Events      
T = Trace of Precipitation, MM = Missing Value Source: NWS Daily Summary

Daily Weather History Graph

Daily Weather History Graph

Search for Another Location

Airport:

Trip Planner

Search our weather history database for the weather conditions in past years. The results will help you decide how hot, cold, wet, or windy it might be!

Date:

Astronomy

Jan. 24, 2012 Rise Set
Actual Time 8:00 AM EST 5:36 PM EST
Civil Twilight 7:29 AM EST 6:07 PM EST
Nautical Twilight 6:54 AM EST 6:42 PM EST
Astronomical Twilight 6:20 AM EST 7:16 PM EST
Moon 8:25 AM EST (1/24) 7:31 PM EST (1/24)
Length of Visible Light 10h 37m
Length of Day
9h 35m
New Moon, 2% of the Moon is Illuminated
Jan 24
New Moon
Jan 30
First Quarter
Feb 7
Full
Feb 14
Last Quarter
Feb 21
New

Hourly Weather History & Observations

Time (EST) Temp. Windchill Dew Point Humidity Pressure Visibility Wind Dir Wind Speed Gust Speed Precip Events Conditions
12:53 AM 32.0 °F 20.5 °F 25.0 °F 75% 29.75 in 10.0 mi WSW 18.4 mph 29.9 mph N/A   Overcast
1:53 AM 32.0 °F 18.9 °F 23.0 °F 69% 29.78 in 10.0 mi WSW 24.2 mph 31.1 mph N/A   Overcast
2:53 AM 30.9 °F 18.7 °F 23.0 °F 72% 29.82 in 10.0 mi West 19.6 mph 27.6 mph N/A   Overcast
3:53 AM 32.0 °F 21.2 °F 23.0 °F 69% 29.84 in 10.0 mi West 16.1 mph - N/A   Overcast
4:53 AM 32.0 °F 21.6 °F 23.0 °F 69% 29.86 in 10.0 mi West 15.0 mph 27.6 mph N/A   Overcast
5:53 AM 32.0 °F 20.1 °F 23.0 °F 69% 29.88 in 10.0 mi West 19.6 mph 25.3 mph N/A   Overcast
6:53 AM 32.0 °F 22.5 °F 24.1 °F 73% 29.91 in 10.0 mi West 12.7 mph - N/A   Overcast
7:49 AM 32.0 °F 20.5 °F 23.0 °F 69% 29.91 in 10.0 mi WSW 18.4 mph - 0.00 in   Overcast
7:53 AM 32.0 °F 20.8 °F 24.1 °F 73% 29.94 in 10.0 mi WSW 17.3 mph - 0.00 in   Overcast
8:04 AM 32.0 °F 20.1 °F 23.0 °F 69% 29.92 in 10.0 mi West 19.6 mph - N/A   Overcast
8:53 AM 32.0 °F 19.8 °F 21.2 °F 64% 29.95 in 10.0 mi West 20.7 mph 26.5 mph N/A   Overcast
9:53 AM 30.9 °F 19.4 °F 23.0 °F 72% 30.01 in 10.0 mi West 17.3 mph 28.8 mph N/A   Overcast
10:53 AM 30.9 °F 20.2 °F 24.1 °F 76% 30.05 in 7.0 mi West 15.0 mph - 0.00 in   Overcast
11:45 AM 30.2 °F 18.5 °F 21.2 °F 69% 30.05 in 10.0 mi West 17.3 mph - 0.00 in   Overcast
11:53 AM 30.9 °F 19.8 °F 21.9 °F 69% 30.08 in 10.0 mi West 16.1 mph 25.3 mph 0.00 in   Overcast
12:34 PM 30.2 °F 18.9 °F 21.2 °F 69% 30.05 in 10.0 mi West 16.1 mph - N/A   Overcast
12:53 PM 30.9 °F 18.7 °F 21.0 °F 67% 30.08 in 10.0 mi West 19.6 mph 25.3 mph N/A   Overcast
1:16 PM 30.2 °F 18.5 °F 21.2 °F 69% 30.06 in 10.0 mi WSW 17.3 mph 27.6 mph N/A   Overcast
1:26 PM 30.2 °F 17.4 °F 21.2 °F 69% 30.06 in 10.0 mi West 20.7 mph 26.5 mph N/A   Overcast
1:37 PM 30.2 °F 19.3 °F 21.2 °F 69% 30.06 in 10.0 mi West 15.0 mph 24.2 mph N/A   Overcast
1:53 PM 30.9 °F 19.8 °F 21.0 °F 67% 30.09 in 10.0 mi West 16.1 mph 23.0 mph N/A   Overcast
2:53 PM 30.9 °F 20.2 °F 21.9 °F 69% 30.12 in 10.0 mi West 15.0 mph - N/A   Overcast
3:53 PM 30.9 °F 20.2 °F 21.9 °F 69% 30.14 in 10.0 mi West 15.0 mph - N/A   Overcast
4:53 PM 30.9 °F 22.8 °F 21.0 °F 67% 30.19 in 10.0 mi WNW 9.2 mph - N/A   Overcast
5:53 PM 30.9 °F 23.5 °F 21.0 °F 67% 30.23 in 10.0 mi WNW 8.1 mph - N/A   Overcast
6:53 PM 30.0 °F 19.5 °F 19.9 °F 66% 30.27 in 10.0 mi WNW 13.8 mph - N/A   Overcast
7:53 PM 30.0 °F 21.1 °F 18.0 °F 61% 30.30 in 10.0 mi NW 10.4 mph - N/A   Overcast
8:53 PM 30.0 °F 22.4 °F 19.0 °F 64% 30.31 in 10.0 mi NW 8.1 mph - N/A   Overcast
9:53 PM 30.0 °F 21.7 °F 19.0 °F 64% 30.33 in 10.0 mi West 9.2 mph - N/A   Overcast
10:53 PM 30.0 °F 23.2 °F 19.9 °F 66% 30.33 in 10.0 mi WNW 6.9 mph - N/A   Overcast
11:53 PM 30.0 °F 21.1 °F 19.0 °F 64% 30.31 in 10.0 mi WNW 10.4 mph - N/A   Overcast